Regional Weather Roundup
Issued by NWS

Home | Current Version | Previous Version | Graphics & Text | Print | Product List | Glossary On
Versions: 1 2 3 4 5 6 7 8 9 10 11 12 13 14 15 16 17 18 19 20 21 22 23 24 25 26 27 28 29 30 31 32 33 34 35 36 37 38 39 40 41 42 43 44 45 46 47 48 49 50
000
ASUS43 KBIS 161610
RWRND

NORTH DAKOTA REGIONAL WEATHER ROUNDUP
NATIONAL WEATHER SERVICE BISMARCK ND
1100 AM CDT WED AUG 16 2017

NOTE: "FAIR" INDICATES FEW OR NO CLOUDS BELOW 12,000 FEET WITH NO
SIGNIFICANT WEATHER AND/OR OBSTRUCTIONS TO VISIBILITY.


NDZ001>003-009>011-017-161700-
NORTHWEST NORTH DAKOTA

CITY           SKY/WX    TMP DP  RH WIND       PRES   REMARKS
WILLISTON      MOSUNNY   68  60  75 S3        29.96S
MINOT          CLOUDY    61  59  93 VRB3      29.94R FOG
MINOT AFB      PTSUNNY   61  61 100 W5        29.92F
$$

NDZ018>021-031>035-040>046-161700-
SOUTHWEST NORTH DAKOTA

CITY           SKY/WX    TMP DP  RH WIND       PRES   REMARKS
BISMARCK       CLOUDY    66  60  81 N8        29.94S
DICKINSON      SUNNY     70  61  73 VRB3      29.97S
GARRISON         N/A     63  61  93 CALM      29.95R
HETTINGER ARPT SUNNY     70  58  65 N7        30.00R
$$

NDZ004>008-012>016-024-026-027-054-161700-
NORTHEAST NORTH DAKOTA

CITY           SKY/WX    TMP DP  RH WIND       PRES   REMARKS
GRAND FORKS    LGT RAIN  65  65 100 E5        29.86R FOG
GRND FRKS AFB  CLOUDY    64  64 100 E5        29.87R
DEVILS LAKE    CLOUDY    65  61  87 N9        29.90R
$$

NDZ022-023-025-028>030-036>039-047>053-161700-
SOUTHEAST NORTH DAKOTA

CITY           SKY/WX    TMP DP  RH WIND       PRES   REMARKS
FARGO          CLOUDY    67  65  93 SE5       29.84S FOG
JAMESTOWN      CLOUDY    65  63  93 N13       29.86R
$$





USA.gov is the U.S. government's official web portal to all federal, state and local government web resources and services.